星链-11730 (STARLINK-11730)

导读

STARLINK-11730是美国于2025年5月21日发射的星链系列卫星,隶属于SpaceX公司打造的星链卫星互联网星座。该卫星延续星链星座低轨布局,承担全球互联网接入服务任务,补充完善星座覆盖密度,助力提升偏远地区与高频场景的网络服务能力,推进星链全球组网进程。

基本信息
目录编号:
64074
目录名称:
STARLINK-11730
国际标识:
2025-107L
轨道中心:
EARTH
卫星名称:
星链-11730
卫星全名:
星链-11730 (STARLINK-11730)
卫星状态:
在轨 (已飞行472 天)
发射日期:
2025-05-21 UTC
国别 :
美国 (US)
星等 :
--
轨道信息
数据来源 国际轨道数据
星历时间: 2026-09-05T07:43:32+0800
14小时前
查看轨道信息
半长轴: 6734.307km
偏心率: 0.0002814
轨道倾角: 43.001°
近地点辐角 244.498°
升交点赤经 97.784°
平近点角 115.560°
近地点: 354.274km
远地点: 358.066km
周期: 91.664分钟
每日圈数: 15.709539
详细信息
固有亮度:
5
最大亮度:
2.5
卫星平台:
Starlink V1.0
覆盖范围:
全球
运营商:
太空探索技术公司
运营商所在国:
美国
制造商(研发单位):
太空探索技术公司
制造商所在国:
美国
使用方式:
暂无
卫星简介
Starlink 计划是 SpaceX 推出的全球卫星互联网项目,通过发射低轨道卫星,为全球尤其是偏远地区提供高速、低延迟的互联网服务。自 2019 年起,Starlink 已部署数千颗卫星,旨在缩小全球数字鸿沟,推动互联网普及。该项目还为军事、航空等行业提供通信支持,带来广泛经济效益。
2D轨道图
3D轨道图
轨道高度分析图
轨道倾角分析图
轨道综合分析图
查看轨道综合分析图